Regional Weather Roundup
Issued by NWS

Home | Current Version | Previous Version | Graphics & Text | Print | Product List | Glossary On
Versions: 1 2 3 4 5 6 7 8 9 10 11 12 13 14 15 16 17 18 19 20 21 22 23 24 25 26 27 28 29 30 31 32 33 34 35 36 37 38 39 40 41 42 43 44 45 46 47 48 49 50
000
ASUS43 KLOT 260706
RWRIL

ILLINOIS REGIONAL WEATHER ROUNDUP
NATIONAL WEATHER SERVICE CHICAGO/ROMEOVILLE IL
100 AM CST WED NOV 26 2014

NOTE: "FAIR" INDICATES FEW OR NO CLOUDS BELOW 12,000 FEET WITH NO
SIGNIFICANT WEATHER AND/OR OBSTRUCTIONS TO VISIBILITY.

* THESE STATIONS ARE NOT UNDER NWS QUALITY CONTROL. THEY ALSO MAY NOT
  REPORT WEATHER SUCH AS PRECIPITATION OR FOG.

ILZ001-002-007-009-015-016-024-260800-
NORTHWEST ILLINOIS

CITY           SKY/WX    TMP DP  RH WIND       PRES   REMARKS
MOLINE         CLEAR     16  12  84 E5        30.12F WCI   9
STERLING*      CLEAR     10   7  85 E6        30.13F WCI   1
SAVANNA*       CLEAR     12  10  89 CALM      30.14F
$$

ILZ003-004-008-010-011-017-018-260800-
NORTH CENTRAL ILLINOIS

CITY           SKY/WX    TMP DP  RH WIND       PRES   REMARKS
ROCKFORD       PTCLDY    11   7  84 E3        30.18F
FREEPORT*      CLEAR      7   5  90 E3        30.15F FOG
ROCHELLE*      CLEAR     10   8  92 CALM      30.17F FOG
DE KALB*         N/A     13  11  91 CALM      30.16S FOG
PERU*          CLEAR     20  18  91 SE3       30.17F
$$

ILZ005-006-012>014-019>023-260800-
NORTHEAST ILLINOIS

CITY           SKY/WX    TMP DP  RH WIND       PRES   REMARKS
CHICAGO-OHARE  CLOUDY    21  17  84 SW6       30.17F WCI  13
CHICAGO-MIDWAY CLOUDY    24  18  77 S7        30.18F WCI  16
AURORA         CLEAR     13   9  84 CALM      30.17F FOG
LANSING*       CLOUDY    24  20  85 S6        30.18F WCI  16
JOLIET*        CLEAR     18  16  95 CALM      30.18S FOG
WAUKEGAN       CLEAR     12   9  87 CALM      30.17F FOG
DUPAGE AIRPORT CLEAR     17  13  84 CALM      30.16F FOG
KANKAKEE*      CLEAR    N/A N/A N/A CALM      30.18S
WHEELING       MOCLDY    20  16  84 CALM      30.19F
MORRIS*        CLEAR     19  19  97 CALM      30.17F FOG
NORTHERLY ISL    N/A     23  18  81 S5          N/A  WCI  17
$$

LMZ740>746-260800-
SOUTHERN LAKE MICHIGAN

STATION/POSITION SKY/WX   TEMP    WIND        PRES    VSBY  WAVE
                          AIR SEA DIR/SP/G                  HT/PER
                          (F)     (DEG/KT/KT) (MB)    (MI)  (FT/S)
SOUTHERN BUOY              29 42  220/ 12/ 17 1022.4F         2/ 3
WAUKEGAN HARBOR            20     250/  5/  6   N/A
HARRISON CRIB              23     200/  8/ 11   N/A
BURNHAM HARBOR             23     170/  4/  9   N/A
CALUMET HARBOR             23     160/  3/  5 1020.7R
MICHIGAN CITY              23     180/  7/  9   N/A
$$

ILZ025>027-034>036-040-047-049-050-058-095>099-260800-
WEST-CENTRAL ILLINOIS

CITY           SKY/WX    TMP DP  RH WIND       PRES   REMARKS
QUINCY         PTCLDY    25  20  81 SE6       30.08F WCI  18
GALESBURG*     CLEAR     20  19  95 E5        30.11F WCI  13
MACOMB*        CLEAR     22  21  98 SE7       30.12F WCI  13
JACKSONVILLE*  CLEAR     28  24  85 SE6       30.11F WCI  21
PITTSFIELD*    PTCLDY    28  24  82 SE5       30.11F WCI  23
$$

ILZ028>032-037-038-041>044-048-051>054-059>061-260800-
CENTRAL ILLINOIS

CITY           SKY/WX    TMP DP  RH WIND       PRES   REMARKS
PONTIAC        CLEAR     19  18  93 SE6       30.17F WCI  11
BLOOMINGTON    CLEAR     22  20  92 SE7       30.14F WCI  14
DECATUR        CLEAR     23  22  96 CALM      30.15F
PEORIA         FAIR      22  17  81 CALM      30.14F
LACON*         CLEAR     15  13  90 CALM      30.15F
LINCOLN*       CLEAR     23  21  93 CALM      30.16F
SPRINGFIELD    CLEAR     25  22  88 SE5       30.14F WCI  19
TAYLORVILLE    CLEAR     27  23  86 SE3       30.15F
$$

ILZ033-039-045-046-055>057-062-063-260800-
EAST-CENTRAL ILLINOIS

CITY           SKY/WX    TMP DP  RH WIND       PRES   REMARKS
CHAMPAIGN      CLEAR     20  17  88 E7        30.16F WCI  11
DANVILLE*      CLEAR     23  20  90 CALM      30.13F
MATTOON        CLEAR     24  21  88 SE3       30.14F
PARIS*         CLEAR     25  23  93 CALM      30.17F
$$

ILZ079-100>102-260800-
SOUTHWEST ILLINOIS

CITY           SKY/WX    TMP DP  RH WIND       PRES   REMARKS
ALTON          CLEAR     26  24  91 E5        30.14F WCI  20
BELLEVILLE     CLEAR     25  24  99 E3        30.14F
CAHOKIA*       CLEAR     28  24  85 SE3       30.14F
SPARTA*        CLEAR     26  24  91 SE5       30.15F WCI  21
$$

ILZ064>066-069>071-074>076-080>082-084>086-088>090-092>094-260800-
SOUTH-CENTRAL ILLINOIS

CITY           SKY/WX    TMP DP  RH WIND       PRES   REMARKS
CARBONDALE     CLEAR     22  19  89 CALM      30.16F
CAIRO*         CLEAR     28  25  89 CALM      30.16F
EFFINGHAM*     CLEAR     23  20  90 CALM      30.16F
MARION         CLEAR     27  25  93 CALM      30.17F
MT. VERNON     CLEAR     19  14  79 CALM      30.16F
CENTRALIA*     CLEAR     26  23  90 CALM      30.15F
SALEM*           N/A     27  24  88 SE3       30.15F
METROPOLIS*    CLEAR     26  26 100 CALM        N/A  FOG
$$

ILZ067-068-072-073-078-083-087-091-260800-
SOUTHEAST ILLINOIS

CITY           SKY/WX    TMP DP  RH WIND       PRES   REMARKS
LAWRENCEVILLE  CLEAR     27  24  89 NE3       30.18F
FLORA*         CLEAR     24  23  99 CALM      30.17F
FAIRFIELD*     CLEAR     25  23  91 CALM      30.16F
HARRISBURG*    CLEAR     23  23 100 CALM      30.18F
ROBINSON*      CLEAR     24  22  91 CALM      30.19S
CARMI*         CLEAR     24  24  99 NE5       30.16F WCI  18
$$

ABBREVIATIONS USED IN REMARKS
   TC - TEMPERATURE IN CELSIUS
  WCI - WIND CHILL INDEX
   HX - HEAT INDEX
  VSB - VISIBILITY
$$




USA.gov is the U.S. government's official web portal to all federal, state and local government web resources and services.